Location: Bakov nad Jizerou
(50.4784°N, 14.9394°E)
Time: 15:28:34
(UTC+00:00)

CZ-2D R/B - Pass Details

Date: 16 June 2021
Orbit: 791 x 845 km, 98.7° (Epoch: 03 August)

Event Time Altitude Azimuth Distance (km) Brightness Sun altitude
Rises 23:14:57 0° 28° (NNE) 3,308 6.5 -16.1°
Reaches altitude 10° 23:18:14 10° 50° (NE) 2,369 5.2 -16.0°
Maximum altitude 23:21:25 16° 88° (E) 1,964 4.2 -16.0°
Drops below altitude 10° 23:24:36 10° 126° (SE) 2,358 4.2 -16.0°
Enters shadow 23:25:18 - 132° (SE) 2,527 4.3 -15.9°
